Location: D�rnast
(49.6426°N, 11.9755°E)
Time: 13:04:10
(UTC+00:00)

USA 229 DEB - Pass Details

Date: 24 January 2021
Orbit: 965 x 1247 km, 63.4° (Epoch: 26 February)

Event Time Altitude Azimuth Distance (km) Brightness Sun altitude
Rises 16:40:46 0° 314° (NW) 3,891 7.0 -7.6°
Reaches altitude 10° 16:43:29 10° 320° (NW) 2,974 6.3 -8.1°
Maximum altitude 16:50:22 49° 34° (NE) 1,474 4.1 -9.1°
Drops below altitude 10° 16:57:40 10° 108° (ESE) 3,152 5.7 -10.2°
Enters shadow 16:59:53 - 113° (ESE) 3,894 6.2 -10.6°
